{"data":{"norad_id":68317,"intl_designator":"2026-057Z","name":"STARLINK-37139","alt_names":[],"object_type":"PAYLOAD","status":"ACTIVE","operator":null,"country":"US","launch_date":"2026-03-20","launch_site_code":"AFWTR","launch_vehicle":null,"mission":null,"orbit_class":"UNKNOWN","rcs_meters":null,"size_class":null,"mass_kg":null,"dimensions":null,"purposes":["comms"],"wikipedia_slug":null,"has_3d_model":false,"image_url":null,"decayed_at":null,"tle_current":{"epoch":"2026-09-19T20:33:14.841792Z","epoch_age_seconds":104054,"freshness":"FRESH","line1":"1 68317U 26057Z   26262.85642178  .00017032  00000+0  52864-3 0  9994","line2":"2 68317  97.2894  28.2457 0000747 114.6537 245.4784 15.33448273 28418","mean_motion":15.33448273,"eccentricity":7.47e-5,"inclination_deg":97.2894,"raan_deg":28.2457,"arg_perigee_deg":114.6537,"mean_anomaly_deg":245.4784,"bstar":0.00052864,"rev_number":2841,"period_min":93.906004222941,"perigee_km":465.02221416861,"apogee_km":466.0446585318,"semimajor_km":6843.6704363502,"source":"CELESTRAK","updated_at":"2026-09-20T09:00:43.881815Z"}}}